Weather History for Hill City, KS

Change the Weather History Date:

Monday, December 26, 2011

  Actual Average Record
Temperature  
Mean Temperature 35 °F 29 °F  
Max Temperature 48 °F 41 °F 70 °F (2008)
Min Temperature 21 °F 16 °F -6 °F (1983)
Degree Days  
Heating Degree Days 30    
Moisture  
Dew Point 22 °F    
Average Humidity 60    
Maximum Humidity 84    
Minimum Humidity 42    
Precipitation  
Precipitation 0.00 in 0.02 in 0.02 in (2014)
Month to date precipitation 0.49 0.62  
Year to date precipitation 20.11 22.85  
Sea Level Pressure  
Sea Level Pressure 30.10 in    
Wind  
Wind Speed 7 mph (West)    
Max Wind Speed 17 mph    
Max Gust Speed 24 mph    
Visibility 10 miles    
Events      
T = Trace of Precipitation, MM = Missing Value Source: NWS Daily Summary

Daily Weather History Graph

Daily Weather History Graph

Search for Another Location

Airport:

Trip Planner

Search our weather history database for the weather conditions in past years. The results will help you decide how hot, cold, wet, or windy it might be!

Date:

Astronomy

Dec. 26, 2011 Rise Set
Actual Time 7:57 AM CST 5:21 PM CST
Civil Twilight 7:27 AM CST 5:52 PM CST
Nautical Twilight 6:53 AM CST 6:25 PM CST
Astronomical Twilight 6:21 AM CST 6:58 PM CST
Moon 9:19 AM CST (12/26) 7:51 PM CST (12/26)
Length of Visible Light 10h 24m
Length of Day
9h 24m
Waxing Crescent, 5% of the Moon is Illuminated
Dec 26
Waxing Crescent
Jan 1
First Quarter
Jan 9
Full
Jan 16
Last Quarter
Jan 23
New

Hourly Weather History & Observations

Time (CST) Temp. Windchill Dew Point Humidity Pressure Visibility Wind Dir Wind Speed Gust Speed Precip Events Conditions
12:53 AM 26.1 °F 20.5 °F 21.0 °F 81% 30.28 in 10.0 mi WSW 4.6 mph - N/A   Clear
1:53 AM 24.1 °F - 18.0 °F 77% 30.25 in 10.0 mi Calm Calm - N/A   Clear
2:53 AM 24.1 °F - 19.0 °F 81% 30.21 in 10.0 mi Calm Calm - N/A   Clear
3:53 AM 24.1 °F 18.2 °F 19.9 °F 84% 30.17 in 10.0 mi West 4.6 mph - N/A   Clear
4:53 AM 24.1 °F 17.0 °F 19.9 °F 84% 30.15 in 10.0 mi WSW 5.8 mph - N/A   Clear
5:53 AM 26.1 °F 20.5 °F 21.0 °F 81% 30.14 in 10.0 mi SW 4.6 mph - N/A   Clear
6:53 AM 28.0 °F 21.7 °F 21.0 °F 75% 30.13 in 10.0 mi SSW 5.8 mph - N/A   Clear
7:53 AM 28.0 °F 24.2 °F 19.9 °F 72% 30.13 in 10.0 mi WSW 3.5 mph - N/A   Clear
8:53 AM 30.9 °F - 21.0 °F 67% 30.12 in 10.0 mi Calm Calm - N/A   Clear
9:53 AM 37.0 °F 28.9 °F 21.9 °F 54% 30.10 in 10.0 mi SW 12.7 mph - N/A   Clear
10:53 AM 39.9 °F 32.5 °F 21.9 °F 49% 30.10 in 10.0 mi SW 12.7 mph 20.7 mph N/A   Clear
11:53 AM 44.1 °F 36.5 °F 23.0 °F 43% 30.07 in 10.0 mi SSW 17.3 mph - N/A   Clear
12:53 PM 46.0 °F 39.3 °F 24.1 °F 42% 30.01 in 10.0 mi WSW 16.1 mph 24.2 mph N/A   Clear
1:53 PM 45.0 °F 37.9 °F 25.0 °F 46% 29.97 in 10.0 mi SW 16.1 mph - N/A   Clear
2:53 PM 45.0 °F 37.9 °F 24.1 °F 44% 29.95 in 10.0 mi SW 16.1 mph - N/A   Clear
4:44 PM 46.4 °F 40.7 °F 24.8 °F 43% 29.94 in 10.0 mi North 12.7 mph - N/A   Clear
4:53 PM 46.0 °F 39.3 °F 24.1 °F 42% 29.99 in 10.0 mi North 16.1 mph - N/A   Clear
5:53 PM 37.9 °F 32.1 °F 23.0 °F 55% 30.04 in 10.0 mi NNW 8.1 mph - N/A   Clear
6:53 PM 37.0 °F 29.8 °F 23.0 °F 57% 30.07 in 10.0 mi NNW 10.4 mph - N/A   Clear
7:53 PM 32.0 °F 23.6 °F 21.9 °F 66% 30.09 in 10.0 mi NNW 10.4 mph - N/A   Clear
8:53 PM 37.0 °F 29.8 °F 21.9 °F 54% 30.10 in 10.0 mi NNW 10.4 mph - N/A   Clear
9:53 PM 39.0 °F 30.3 °F 19.0 °F 45% 30.13 in 10.0 mi NNW 16.1 mph - N/A   Clear
10:53 PM 37.0 °F 28.1 °F 19.0 °F 48% 30.14 in 10.0 mi NNW 15.0 mph - N/A   Clear
11:53 PM 35.1 °F 25.9 °F 19.0 °F 52% 30.14 in 10.0 mi NNW 13.8 mph - N/A   Clear